Date,TemperatureHighF,TemperatureAvgF,TemperatureLowF,DewpointHighF,DewpointAvgF,DewpointLowF,HumidityHigh,HumidityAvg,HumidityLow,PressureMaxIn,PressureMinIn,WindSpeedMaxMPH,WindSpeedAvgMPH,GustSpeedMaxMPH,PrecipitationSumIn
2013-9-1,77.9,72.2,68.6,75.7,70.7,66.8,97,95,91,29.88,29.78,4,0,0,0.73
2013-9-2,81.3,74.1,69.5,75.5,71.6,68.6,97,92,77,29.87,29.70,8,0,12,0.12
2013-9-3,79.5,73.4,64.0,72.2,67.1,59.4,87,81,71,29.81,29.70,5,0,0,0.00
2013-9-4,81.3,68.9,57.8,61.8,58.0,55.7,95,71,45,29.91,29.80,8,0,0,0.00
2013-9-5,69.5,62.5,51.7,62.7,56.9,46.8,95,82,50,30.14,29.85,6,0,0,0.09
2013-9-6,70.0,57.4,44.7,48.0,44.8,39.7,93,66,37,30.24,30.09,6,0,0,0.00
2013-9-7,80.0,63.4,48.5,57.7,51.7,45.3,89,68,38,30.09,29.85,5,0,0,0.00
2013-9-8,75.0,64.8,51.0,62.2,52.9,41.1,90,68,39,30.09,29.74,14,1,14,0.00
2013-9-9,70.3,57.3,43.4,50.8,45.8,41.1,93,68,43,30.24,30.09,7,0,0,0.00
2013-9-10,75.4,66.3,54.7,70.2,62.2,50.4,95,87,82,30.16,30.03,8,0,0,0.05
2013-9-11,95.5,79.9,68.6,78.0,71.8,67.1,97,79,49,30.06,29.92,6,0,0,0.00
2013-9-12,87.5,77.3,68.4,75.5,70.7,66.9,95,81,61,29.96,29.66,10,1,0,0.70
2013-9-13,78.2,69.8,65.1,69.5,66.2,59.3,97,89,68,29.70,29.55,7,0,0,0.10
2013-9-14,66.4,60.9,52.4,55.7,52.7,49.8,91,75,66,30.06,29.88,6,0,0,0.00
2013-9-15,71.5,58.6,47.7,54.0,50.1,46.3,97,76,49,30.16,30.05,6,0,0,0.00
2013-9-16,66.5,57.7,49.1,56.5,50.7,39.1,92,78,62,30.25,30.01,10,0,0,0.02
2013-9-17,63.2,51.4,41.7,45.4,40.0,36.4,92,67,43,30.42,30.25,8,1,0,0.00
2013-9-18,74.1,56.5,41.1,50.0,45.4,39.6,97,71,34,30.33,30.14,5,0,0,0.00
2013-9-19,80.1,61.5,45.9,56.6,51.7,44.3,97,74,41,30.15,30.02,5,0,0,0.00
2013-9-20,80.2,59.8,49.3,58.9,53.0,47.8,97,81,39,30.08,29.99,5,0,0,0.00
2013-9-21,74.4,68.1,55.7,65.8,63.3,54.0,97,85,64,30.02,29.72,7,0,0,0.00
2013-9-22,70.3,64.3,53.0,67.0,57.8,46.6,96,80,55,29.83,29.60,4,1,13,0.54
2013-9-23,63.4,53.3,45.4,46.8,43.1,40.0,85,69,52,30.00,29.82,8,1,0,0.00
2013-9-24,66.9,53.6,43.0,46.7,43.0,39.2,88,69,44,30.00,29.81,8,1,0,0.00
2013-9-25,66.1,54.7,43.8,51.2,47.3,42.2,95,77,57,29.98,29.88,6,0,0,0.00
2013-9-26,65.1,57.4,53.2,52.7,49.3,46.5,89,75,58,30.12,29.98,6,0,0,0.00
2013-9-27,64.3,57.9,49.2,54.5,51.4,47.3,93,80,64,30.26,30.12,7,0,0,0.00
2013-9-28,72.2,57.0,46.9,57.4,51.1,45.5,97,83,56,30.33,30.25,9,0,0,0.00
2013-9-29,65.9,52.6,45.8,50.3,47.2,44.5,97,84,50,30.27,30.12,6,0,0,0.00
2013-9-30,67.1,55.4,48.3,52.8,50.2,46.6,97,84,55,30.13,29.96,6,0,0,0.00